EW3149 Weather Reports


time (UTC)temp
F
wind
direction
speed
knots
gust
knots
rain 1hr
in
rain 24hr
in
rain mn
in
humidity
%
barometer
mb
20260505041401 66 0 7.8 17.4 0.00 0.00 0.00 64 1003.3
20260505040901 67 0 6.1 12.2 0.00 0.00 0.00 62 1003.1
20260505035901 67 0 8.7 13.0 0.00 0.00 0.00 62 1002.6
20260505034401 67 0 8.7 15.6 0.00 0.00 0.00 62 1001.8
20260505033901 67 0 9.6 13.0 0.00 0.00 0.00 62 1001.8
20260505033402 67 0 7.0 12.2 0.00 0.00 0.00 62 1001.8
20260505032902 67 0 8.7 17.4 0.00 0.00 0.00 62 1001.8
20260505032401 67 5 8.7 14.8 0.00 0.00 0.00 63 1001.9
20260505031401 68 0 7.8 13.0 0.00 0.00 0.00 61 1002.1
20260505030901 68 0 10.4 15.6 0.00 0.00 0.00 61 1002.0
20260505030401 68 0 7.8 11.3 0.00 0.00 0.00 62 1002.0
20260505025901 67 0 7.8 12.2 0.00 0.00 0.00 62 1002.0
20260505025402 67 0 7.8 12.2 0.00 0.00 0.00 62 1002.0
20260505024902 67 0 7.0 11.3 0.00 0.00 0.00 62 1001.9
20260505023901 68 0 7.8 13.0 0.00 0.00 0.00 61 1002.1
20260505023401 68 0 7.0 12.2 0.00 0.00 0.00 61 1002.1
20260505022902 68 4 7.8 12.2 0.00 0.00 0.00 61 1002.2
20260505021902 68 0 8.7 10.4 0.00 0.00 0.00 60 1002.1
20260505021401 68 0 9.6 13.0 0.00 0.00 0.00 60 1002.1
20260505020901 68 0 7.8 10.4 0.00 0.00 0.00 61 1002.1
20260505020402 68 0 7.8 11.3 0.00 0.00 0.00 60 1002.0
20260505015902 68 0 8.7 13.9 0.00 0.00 0.00 59 1001.9
20260505014402 69 0 7.8 11.3 0.00 0.00 0.00 58 1001.8
20260505013901 69 0 9.6 13.9 0.00 0.00 0.00 57 1001.7
20260505013402 69 0 9.6 13.0 0.00 0.00 0.00 57 1001.7
20260505012402 69 0 8.7 12.2 0.00 0.00 0.00 56 1001.7
20260505011901 70 0 10.4 13.9 0.00 0.00 0.00 55 1001.5
20260505011402 70 0 11.3 13.9 0.00 0.00 0.00 54 1001.5
20260505010902 70 0 10.4 13.9 0.00 0.00 0.00 55 1001.5
20260505010402 70 0 10.4 14.8 0.00 0.00 0.00 55 1001.5
20260505005902 70 8 9.6 13.9 0.00 0.00 0.00 54 1001.5
20260505005402 70 8 11.3 14.8 0.00 0.00 0.00 54 1001.5
20260505004902 71 5 8.7 13.0 0.00 0.00 0.00 55 1001.6
20260505003901 71 0 8.7 13.9 0.00 0.00 0.00 53 1001.6
20260505003402 71 0 8.7 13.9 0.00 0.00 0.00 53 1001.6
20260505002902 72 1 11.3 14.8 0.00 0.00 0.00 52 1001.5
20260505002402 72 0 14.8 19.1 0.00 0.00 0.00 51 1001.4
20260505001402 72 3 11.3 21.7 0.00 0.00 0.00 52 1001.4
20260505000902 72 339 12.2 17.4 0.00 0.00 0.00 52 1001.3
20260505000401 72 346 10.4 15.6 0.00 0.00 0.00 53 1001.3
20260504235402 72 351 11.3 13.0 0.00 0.00 0.00 59 1001.2
20260504234902 71 334 8.7 13.9 0.00 0.00 0.00 63 1001.2
20260504234402 71 350 10.4 14.8 0.00 0.00 0.00 64 1001.3
20260504233902 71 4 8.7 12.2 0.00 0.00 0.00 66 1001.4
20260504233401 71 2 8.7 11.3 0.00 0.00 0.00 66 1001.5
20260504232902 71 11 10.4 12.2 0.00 0.00 0.00 65 1001.7
20260504232402 71 10 10.4 13.0 0.00 0.00 0.00 65 1001.8
20260504231902 71 6 11.3 13.9 0.00 0.00 0.00 64 1001.9
20260504230902 71 3 12.2 17.4 0.00 0.00 0.00 63 1002.0
20260504230402 71 323 11.3 17.4 0.00 0.00 0.00 63 1002.0
20260504225901 71 10 10.4 18.2 0.00 0.00 0.00 64 1002.1
20260504225402 72 11 14.8 19.1 0.00 0.00 0.00 62 1002.2
20260504224902 72 296 14.8 19.1 0.00 0.00 0.00 62 1002.3
20260504224402 72 343 13.9 20.9 0.00 0.00 0.00 62 1002.4
20260504223902 72 233 14.8 20.9 0.00 0.00 0.00 62 1002.4
20260504223402 72 311 14.8 20.9 0.00 0.00 0.00 60 1002.6
20260504221902 72 2 12.2 18.2 0.00 0.00 0.00 60 1002.8
20260504220902 72 327 13.9 21.7 0.00 0.00 0.00 57 1002.7
20260504215902 73 345 14.8 21.7 0.00 0.00 0.00 55 1002.7
20260504215402 73 334 13.0 22.6 0.00 0.00 0.00 56 1002.8
20260504214402 72 304 15.6 24.3 0.00 0.00 0.00 56 1003.0
20260504213402 72 315 14.8 19.1 0.00 0.00 0.00 55 1003.1
20260504212902 72 351 17.4 26.1 0.00 0.00 0.00 54 1003.0
20260504212402 73 289 17.4 28.7 0.00 0.00 0.00 53 1003.0
20260504211902 73 330 13.9 25.2 0.00 0.00 0.00 53 1003.0
20260504211402 74 301 18.2 25.2 0.00 0.00 0.00 50 1003.0
20260504210902 74 351 16.5 25.2 0.00 0.00 0.00 51 1002.9
20260504205402 75 348 13.9 26.1 0.00 0.00 0.00 52 1002.9
20260504204903 75 303 15.6 26.1 0.00 0.00 0.00 51 1003.0
20260504204402 74 315 16.5 24.3 0.00 0.00 0.00 51 1003.0
20260504203902 75 321 15.6 24.3 0.00 0.00 0.00 53 1002.9
20260504202402 74 287 18.2 22.6 0.00 0.00 0.00 52 1003.1
20260504201903 74 319 18.2 22.6 0.00 0.00 0.00 51 1003.1
20260504200902 74 294 18.2 22.6 0.00 0.00 0.00 51 1003.0
20260504195903 74 256 15.6 22.6 0.00 0.00 0.00 51 1003.2
20260504195402 75 327 17.4 25.2 0.00 0.01 0.00 50 1003.2
20260504194902 75 297 13.9 22.6 0.00 0.02 0.00 52 1003.4
20260504193903 74 287 15.6 22.6 0.00 0.06 0.00 54 1003.6
20260504193402 73 333 15.6 20.9 0.00 0.07 0.00 53 1003.5
20260504192903 74 325 15.6 21.7 0.00 0.08 0.00 53 1003.5
20260504192402 74 289 17.4 26.1 0.00 0.09 0.00 52 1003.5
20260504191902 75 328 19.1 28.7 0.00 0.10 0.00 51 1003.6
20260504191402 75 329 17.4 26.1 0.00 0.10 0.00 54 1003.7
20260504190902 74 308 20.9 31.3 0.00 0.10 0.00 53 1003.6
20260504190403 75 311 19.1 30.4 0.00 0.10 0.00 52 1003.7
20260504185902 75 269 18.2 26.1 0.00 0.10 0.00 52 1003.8
20260504185402 75 324 19.1 30.4 0.00 0.10 0.00 52 1003.7
20260504184902 75 307 20.0 28.7 0.00 0.10 0.00 52 1003.6
20260504184402 75 329 16.5 24.3 0.00 0.10 0.00 53 1003.6
20260504183403 75 340 20.0 27.8 0.00 0.10 0.00 53 1003.7
20260504182903 75 335 14.8 22.6 0.00 0.10 0.00 55 1003.8
20260504182403 74 282 14.8 24.3 0.00 0.10 0.00 54 1003.7
20260504181902 74 342 18.2 26.9 0.00 0.10 0.00 53 1003.7
20260504181402 74 331 17.4 26.1 0.00 0.10 0.00 55 1003.7
20260504180902 74 336 16.5 26.1 0.00 0.10 0.00 55 1003.7
20260504180402 74 316 16.5 24.3 0.00 0.10 0.00 56 1003.8
20260504175902 74 338 18.2 28.7 0.00 0.10 0.00 56 1003.8
20260504175402 74 305 17.4 26.1 0.00 0.10 0.00 55 1003.7
20260504174902 74 321 15.6 24.3 0.00 0.10 0.00 56 1003.9
20260504174403 73 334 14.8 22.6 0.00 0.10 0.00 57 1003.7
20260504173902 73 297 15.6 26.9 0.00 0.10 0.00 58 1003.8
20260504173402 73 311 17.4 26.9 0.00 0.10 0.00 58 1003.8
20260504172902 73 313 14.8 26.1 0.00 0.10 0.00 59 1003.9
20260504172403 73 337 13.0 20.9 0.00 0.10 0.00 61 1004.0
20260504171903 72 336 17.4 22.6 0.00 0.10 0.00 59 1004.0
20260504171402 72 299 16.5 26.9 0.00 0.10 0.00 59 1004.0
20260504170902 72 343 15.6 25.2 0.00 0.10 0.00 60 1004.2
20260504170402 72 353 15.6 26.1 0.00 0.10 0.00 59 1004.3
20260504160403 70 352 12.2 18.2 0.00 0.10 0.00 63 1005.3
20260504150903 65 0 10.4 14.8 0.00 0.10 0.00 71 1005.9
20260504150403 65 9 10.4 14.8 0.00 0.10 0.00 71 1005.9
20260504140903 60 339 8.7 13.9 0.00 0.10 0.00 77 1006.4
20260504140403 60 347 9.6 13.9 0.00 0.10 0.00 77 1006.6
20260504130404 56 312 6.1 13.0 0.00 0.10 0.00 80 1006.9
20260504110403 49 216 2.6 4.3 0.00 0.10 0.00 82 1007.3
20260504100403 50 334 6.1 8.7 0.00 0.10 0.00 79 1007.3
20260504081903 51 334 6.1 10.4 0.00 0.10 0.00 78 1007.8
20260504081403 51 222 5.2 10.4 0.00 0.10 0.00 78 1007.8
20260504080904 51 265 5.2 8.7 0.00 0.10 0.00 78 1007.8
20260504080404 51 332 5.2 10.4 0.00 0.10 0.00 78 1007.9
20260504050401 51 309 4.3 8.7 0.00 0.10 0.00 79 1009.5
20260504045901 51 263 6.1 10.4 0.00 0.10 0.00 80 1009.6
20260504045401 50 235 5.2 7.8 0.00 0.10 0.00 81 1009.5
20260504044901 50 203 3.5 7.0 0.00 0.10 0.00 82 1009.6
20260504044402 49 193 3.5 6.1 0.00 0.10 0.00 83 1009.6
20260504043901 49 189 4.3 5.2 0.00 0.10 0.00 83 1009.6
20260504043401 49 186 4.3 5.2 0.00 0.10 0.00 83 1009.7
20260504042901 49 185 4.3 5.2 0.00 0.10 0.00 84 1009.8
20260504042402 49 187 3.5 4.3 0.00 0.10 0.00 83 1009.8
20260504041901 49 191 2.6 4.3 0.00 0.10 0.00 83 1009.9